EW8359 Weather Reports


time (UTC)temp
F
wind
direction
speed
knots
gust
knots
rain 1hr
in
rain 24hr
in
rain mn
in
humidity
%
barometer
mb
20260504050009 35 220 0.0 0.0 0.00 0.00 0.00 82 1006.9
20260504044521 35 220 0.0 0.0 0.00 0.00 0.00 82 1006.9
20260504043006 35 220 0.0 0.0 0.00 0.00 0.00 82 1006.8
20260504041502 34 220 0.0 0.0 0.00 0.00 0.00 84 1006.6
20260504040107 35 209 0.0 0.0 0.00 0.00 0.00 83 1006.6
20260504040001 35 209 0.0 0.0 0.00 0.00 0.00 83 1006.6
20260504034603 35 209 0.0 0.0 0.00 0.00 0.00 81 1006.4
20260504033113 35 207 0.0 1.7 0.00 0.00 0.00 81 1006.4
20260504031554 36 302 0.0 0.9 0.00 0.00 0.00 81 1006.2
20260504030054 36 303 0.0 0.0 0.00 0.00 0.00 81 1006.3
20260504024557 36 303 0.0 0.0 0.00 0.00 0.00 79 1006.3
20260504023054 36 303 0.0 0.0 0.00 0.00 0.00 81 1006.2
20260504021551 36 307 0.0 1.7 0.00 0.00 0.00 81 1006.2
20260504020049 36 308 0.0 0.0 0.00 0.00 0.00 80 1006.3
20260504014549 37 308 0.0 1.7 0.00 0.01 0.00 79 1006.3
20260504013050 37 309 0.0 0.0 0.00 0.01 0.00 77 1006.2
20260504011543 38 309 0.0 0.0 0.00 0.01 0.00 74 1006.1
20260504010048 40 309 0.0 0.0 0.00 0.01 0.00 70 1006.0
20260504004536 41 309 0.0 0.0 0.00 0.04 0.00 68 1005.6
20260504003035 42 309 0.0 0.0 0.00 0.04 0.00 64 1005.5
20260504001537 43 304 0.0 0.0 0.00 0.04 0.00 60 1005.3
20260504000037 44 306 0.0 0.0 0.00 0.04 0.00 58 1005.0
20260503234534 45 284 0.0 4.3 0.00 0.05 0.00 54 1004.8
20260503233032 46 293 0.0 1.7 0.00 0.05 0.00 51 1004.6
20260503231532 47 304 0.0 12.2 0.00 0.05 0.00 51 1004.5
20260503230032 48 236 0.0 7.8 0.00 0.05 0.00 50 1004.3
20260503224530 48 329 0.0 6.1 0.00 0.07 0.00 48 1004.1
20260503223030 49 175 2.6 10.4 0.00 0.07 0.00 47 1003.9
20260503221629 49 274 1.7 7.8 0.00 0.07 0.00 47 1003.8
20260503220029 51 35 1.7 13.0 0.00 0.07 0.00 45 1003.6
20260503214528 50 261 0.9 8.7 0.00 0.10 0.00 48 1003.4
20260503213032 50 360 1.7 8.7 0.00 0.10 0.00 48 1003.5
20260503211527 52 351 1.7 8.7 0.00 0.10 0.00 46 1003.3
20260503210026 52 307 0.0 15.6 0.00 0.10 0.00 46 1003.0
20260503204527 54 29 0.9 7.0 0.00 0.17 0.00 46 1002.8
20260503203026 51 246 0.9 10.4 0.00 0.17 0.00 49 1002.8
20260503201530 52 250 0.0 7.8 0.00 0.17 0.00 50 1002.8
20260503200031 53 163 0.9 7.8 0.00 0.17 0.00 47 1002.7
20260503194527 54 268 3.5 11.3 0.00 0.20 0.00 49 1002.7
20260503193018 52 273 1.7 6.1 0.00 0.20 0.00 53 1002.8
20260503191517 51 324 1.7 13.0 0.00 0.20 0.00 54 1003.0
20260503190019 51 55 3.5 9.6 0.00 0.20 0.00 57 1003.0
20260503184515 50 32 0.0 8.7 0.00 0.24 0.00 63 1003.1
20260503183014 50 298 0.0 6.1 0.00 0.24 0.00 63 1003.2
20260503181510 50 351 0.9 7.8 0.00 0.24 0.00 63 1003.2
20260503180135 48 341 0.9 7.0 0.00 0.24 0.00 66 1003.2
20260503174559 47 285 0.0 4.3 0.00 0.24 0.00 70 1003.4
20260503173059 47 62 0.9 8.7 0.00 0.24 0.00 72 1003.5
20260503171551 46 339 2.6 9.6 0.00 0.24 0.00 71 1003.5
20260503081600 41 21 0.0 0.0 0.00 0.28 0.00 95 1006.1
20260503071556 42 28 0.0 0.0 0.00 0.28 0.00 95 1006.4
20260503060138 43 5 0.0 2.6 0.00 0.28 0.00 95 1007.0
20260503054535 43 321 0.0 2.6 0.00 0.28 0.00 95 1007.2
20260503053039 43 311 0.0 0.0 0.00 0.28 0.00 95 1007.5